Flag for Guadeloupe Weather past 2 weeks in Pointe-à-Pitre, Guadeloupe

Now
77 °F

Warm.


Feels Like: 78 °F
Forecast: 73 / 89 °F
Wind: No wind

Location: Le Raizet - Guadeloupe

Current Time: Sep 3, 2015 at 7:46:13 AM

Latest Report: Sep 3, 2015 at 7:00 AM


Visibility: N/A

Pressure: 29.95 "Hg

Humidity: 94%

Dew point: 75 °F

Location of Pointe-à-PitreLocation

Historic Weather in Pointe-à-Pitre — Graph

°F

Pointe-à-Pitre temperature yesterday

Maximum temperature yesterday: 90 °F (at 12:30 PM)
Minimum temperature yesterday: 77 °F (at 4:30 AM)
Average temperature yesterday: 83 °F

Past Weeks' High & Low Weather Summary

 TemperatureHumidityPressure
High91 °F (Aug 19, 12:30 PM)100% (Aug 20, 5:00 AM)30.04 "Hg (Aug 20, 5:00 AM)
Low73 °F (Aug 22, 3:00 AM)46% (Aug 19, 12:30 PM)29.71 "Hg (Aug 27, 3:00 AM)
Average82 °F82%29.94 "Hg
* Reported Aug 19 6:00 AM — Sep 3 6:30 AM, Pointe-à-Pitre, Weather by CustomWeather, © 2015

Note: Actual official high and low records may vary slightly from our data, if they occured in-between our weather recording intervals... More about our weather records

Advertising

Pointe-à-Pitre weather history for previous 24 hours

 ConditionsComfort  
Time TempWeatherWind HumidityBarometerVisibility
6:30 AM
Thu, Sep 3
75 °FPassing clouds.No wind94%29.95 "HgN/A
6:00 AM75 °FMild.No wind94%29.95 "HgN/A
5:30 AM73 °FMild.No wind100%29.95 "HgN/A
5:00 AM75 °FMild.No wind94%29.95 "HgN/A
4:30 AM75 °FMild.1 mph94%29.95 "HgN/A
4:00 AM75 °FMild.2 mph94%29.95 "HgN/A
3:30 AM75 °FMild.No wind94%29.95 "HgN/A
3:00 AM75 °FMild.2 mph94%29.95 "HgN/A
2:30 AM77 °FWarm.2 mph94%29.95 "HgN/A
2:00 AM75 °FMild.1 mph94%29.95 "HgN/A
1:30 AM77 °FWarm.No wind94%29.95 "HgN/A
1:00 AM77 °FWarm.2 mph89%29.95 "HgN/A
12:30 AM79 °FWarm.3 mph89%29.98 "HgN/A
12:00 AM77 °FWarm.3 mph94%29.98 "HgN/A
11:30 PM
Wed, Sep 2
79 °FWarm.3 mph89%29.98 "HgN/A
11:00 PM79 °FWarm.3 mph89%30.01 "HgN/A
10:30 PM79 °FWarm.3 mph89%30.01 "HgN/A
10:00 PM79 °FWarm.2 mph89%30.01 "HgN/A
9:30 PM79 °FWarm.2 mph89%30.01 "HgN/A
9:00 PM81 °FWarm.2 mph84%29.98 "HgN/A
8:30 PM81 °FWarm.3 mph84%29.98 "HgN/A
8:00 PM81 °FWarm.3 mph84%29.98 "HgN/A
7:30 PM82 °FWarm.5 mph79%29.98 "HgN/A
7:00 PM82 °FWarm.6 mph74%29.95 "HgN/A
5:30 PM84 °FPartly sunny.9 mph74%29.95 "HgN/A
5:00 PM86 °FPartly sunny.7 mph66%29.95 "HgN/A
4:30 PM86 °FPartly sunny.8 mph66%29.95 "HgN/A
4:00 PM88 °FBroken clouds.8 mph62%29.95 "HgN/A
3:30 PM88 °FPartly sunny.8 mph66%29.95 "HgN/A
3:00 PM88 °FPartly sunny.12 mph66%29.95 "HgN/A
2:30 PM88 °FBroken clouds.10 mph66%29.95 "HgN/A
2:00 PM90 °FMostly cloudy.12 mph63%29.98 "HgN/A
1:30 PM88 °FPartly sunny.10 mph66%29.98 "HgN/A
1:00 PM88 °FPartly sunny.10 mph62%29.98 "HgN/A
12:30 PM90 °FBroken clouds.10 mph59%30.01 "HgN/A
12:00 PM88 °FScattered clouds.10 mph66%30.01 "HgN/A
11:30 AM88 °FPassing clouds.13 mph66%30.01 "HgN/A
11:00 AM88 °FBroken clouds.9 mph70%30.01 "HgN/A
10:30 AM88 °FBroken clouds.7 mph66%30.04 "HgN/A
10:00 AM86 °FPartly sunny.7 mph70%30.04 "HgN/A
9:30 AM86 °FPartly sunny.8 mph75%30.04 "HgN/A
9:00 AM86 °FBroken clouds.8 mph70%30.01 "HgN/A
8:30 AM84 °FScattered clouds.8 mph79%30.04 "HgN/A
8:00 AM84 °FPassing clouds.7 mph79%30.01 "HgN/A
7:30 AM82 °FPassing clouds.No wind84%30.01 "HgN/A
7:00 AM79 °FPassing clouds.No wind94%30.01 "HgN/A
Weather by CustomWeather, © 2015

See weather overviewHow to use our weather pages